Time,TemperatureF,DewpointF,PressureIn,WindDirection,WindDirectionDegrees,WindSpeedMPH,WindSpeedGustMPH,Humidity,HourlyPrecipIn,Conditions,Clouds,dailyrainin,SoftwareType,DateUTC
2013-02-06 00:00:00,45.0,38.0,-100.00,North,-999,-999.0,-999.0,74,-99.99,,,-99.99,,2013-02-06 00:00:00,
2013-02-06 00:41:00,45.0,38.0,-100.00,North,-999,-999.0,-999.0,74,-99.99,,,-99.99,,2013-02-06 00:41:00,
2013-02-06 00:51:00,45.0,38.0,-100.00,North,-999,-999.0,-999.0,74,-99.99,,,-99.99,,2013-02-06 00:51:00,
2013-02-06 01:00:00,45.0,38.0,-100.00,North,-999,-999.0,-999.0,76,-99.99,,,-99.99,,2013-02-06 01:00:00,
2013-02-06 01:41:00,45.0,38.0,-100.00,North,-999,-999.0,-999.0,76,-99.99,,,-99.99,,2013-02-06 01:41:00,
2013-02-06 01:52:00,45.0,38.0,-100.00,North,-999,-999.0,-999.0,76,-99.99,,,-99.99,,2013-02-06 01:52:00,
2013-02-06 02:00:00,45.0,38.0,-100.00,North,-999,-999.0,-999.0,75,-99.99,,,-99.99,,2013-02-06 02:00:00,
2013-02-06 02:41:00,45.0,38.0,-100.00,North,-999,-999.0,-999.0,75,-99.99,,,-99.99,,2013-02-06 02:41:00,
2013-02-06 02:52:00,45.0,38.0,-100.00,North,-999,-999.0,-999.0,75,-99.99,,,-99.99,,2013-02-06 02:52:00,
2013-02-06 03:00:00,45.0,38.0,-100.00,North,-999,-999.0,-999.0,77,-99.99,,,-99.99,,2013-02-06 03:00:00,
2013-02-06 03:41:00,45.0,38.0,-100.00,North,-999,-999.0,-999.0,77,-99.99,,,-99.99,,2013-02-06 03:41:00,
2013-02-06 03:52:00,45.0,38.0,-100.00,North,-999,-999.0,-999.0,77,-99.99,,,-99.99,,2013-02-06 03:52:00,
2013-02-06 04:00:00,44.0,33.0,-100.00,North,-999,-999.0,-999.0,64,-99.99,,,-99.99,,2013-02-06 04:00:00,
2013-02-06 04:41:00,44.0,33.0,-100.00,North,-999,-999.0,-999.0,64,-99.99,,,-99.99,,2013-02-06 04:41:00,
2013-02-06 04:51:00,44.0,33.0,-100.00,North,-999,-999.0,-999.0,64,-99.99,,,-99.99,,2013-02-06 04:51:00,
2013-02-06 05:00:00,44.0,32.0,-100.00,North,-999,-999.0,-999.0,61,-99.99,,,-99.99,,2013-02-06 05:00:00,
2013-02-06 05:41:00,44.0,32.0,-100.00,North,-999,-999.0,-999.0,61,-99.99,,,-99.99,,2013-02-06 05:41:00,
2013-02-06 05:52:00,44.0,32.0,-100.00,North,-999,-999.0,-999.0,61,-99.99,,,-99.99,,2013-02-06 05:52:00,
2013-02-06 06:00:00,44.0,30.0,-100.00,North,-999,-999.0,-999.0,58,-99.99,,,-99.99,,2013-02-06 06:00:00,
2013-02-06 06:31:00,44.0,30.0,-100.00,North,-999,-999.0,-999.0,58,-99.99,,,-99.99,,2013-02-06 06:31:00,
2013-02-06 06:41:00,44.0,30.0,-100.00,North,-999,-999.0,-999.0,58,-99.99,,,-99.99,,2013-02-06 06:41:00,
2013-02-06 06:51:00,44.0,30.0,-100.00,North,-999,-999.0,-999.0,58,-99.99,,,-99.99,,2013-02-06 06:51:00,
2013-02-06 07:00:00,43.0,31.0,-100.00,North,-999,-999.0,-999.0,61,-99.99,,,-99.99,,2013-02-06 07:00:00,
2013-02-06 07:41:00,43.0,31.0,-100.00,North,-999,-999.0,-999.0,61,-99.99,,,-99.99,,2013-02-06 07:41:00,
2013-02-06 07:51:00,43.0,31.0,-100.00,North,-999,-999.0,-999.0,61,-99.99,,,-99.99,,2013-02-06 07:51:00,
2013-02-06 08:00:00,43.0,30.0,-100.00,North,-999,-999.0,-999.0,58,-99.99,,,-99.99,,2013-02-06 08:00:00,
2013-02-06 08:41:00,43.0,30.0,-100.00,North,-999,-999.0,-999.0,58,-99.99,,,-99.99,,2013-02-06 08:41:00,
2013-02-06 08:53:00,43.0,30.0,-100.00,North,-999,-999.0,-999.0,58,-99.99,,,-99.99,,2013-02-06 08:53:00,
2013-02-06 09:00:00,43.0,29.0,-100.00,North,-999,-999.0,-999.0,57,-99.99,,,-99.99,,2013-02-06 09:00:00,
2013-02-06 09:41:00,43.0,29.0,-100.00,North,-999,-999.0,-999.0,57,-99.99,,,-99.99,,2013-02-06 09:41:00,
2013-02-06 09:51:00,43.0,29.0,-100.00,North,-999,-999.0,-999.0,57,-99.99,,,-99.99,,2013-02-06 09:51:00,
2013-02-06 10:00:00,43.0,30.0,-100.00,North,-999,-999.0,-999.0,58,-99.99,,,-99.99,,2013-02-06 10:00:00,
2013-02-06 10:41:00,43.0,30.0,-100.00,North,-999,-999.0,-999.0,58,-99.99,,,-99.99,,2013-02-06 10:41:00,
2013-02-06 10:51:00,43.0,30.0,-100.00,North,-999,-999.0,-999.0,58,-99.99,,,-99.99,,2013-02-06 10:51:00,
2013-02-06 11:00:00,44.0,31.0,-100.00,North,-999,-999.0,-999.0,60,-99.99,,,-99.99,,2013-02-06 11:00:00,
2013-02-06 11:41:00,44.0,31.0,-100.00,North,-999,-999.0,-999.0,60,-99.99,,,-99.99,,2013-02-06 11:41:00,
2013-02-06 11:52:00,44.0,31.0,-100.00,North,-999,-999.0,-999.0,60,-99.99,,,-99.99,,2013-02-06 11:52:00,
2013-02-06 12:00:00,43.0,30.0,-100.00,North,-999,-999.0,-999.0,59,-99.99,,,-99.99,,2013-02-06 12:00:00,
2013-02-06 12:41:00,43.0,30.0,-100.00,North,-999,-999.0,-999.0,59,-99.99,,,-99.99,,2013-02-06 12:41:00,
2013-02-06 12:52:00,43.0,30.0,-100.00,North,-999,-999.0,-999.0,59,-99.99,,,-99.99,,2013-02-06 12:52:00,
2013-02-06 13:00:00,43.0,31.0,-100.00,North,-999,-999.0,-999.0,60,-99.99,,,-99.99,,2013-02-06 13:00:00,
2013-02-06 13:41:00,43.0,31.0,-100.00,North,-999,-999.0,-999.0,60,-99.99,,,-99.99,,2013-02-06 13:41:00,
2013-02-06 13:51:00,43.0,31.0,-100.00,North,-999,-999.0,-999.0,60,-99.99,,,-99.99,,2013-02-06 13:51:00,
2013-02-06 14:00:00,44.0,31.0,-100.00,North,-999,-999.0,-999.0,60,-99.99,,,-99.99,,2013-02-06 14:00:00,
2013-02-06 14:41:00,44.0,31.0,-100.00,North,-999,-999.0,-999.0,60,-99.99,,,-99.99,,2013-02-06 14:41:00,
2013-02-06 14:51:00,44.0,31.0,-100.00,North,-999,-999.0,-999.0,60,-99.99,,,-99.99,,2013-02-06 14:51:00,
2013-02-06 16:00:00,44.0,32.0,-100.00,North,-999,-999.0,-999.0,62,-99.99,,,-99.99,,2013-02-06 16:00:00,
2013-02-06 16:41:00,44.0,32.0,-100.00,North,-999,-999.0,-999.0,62,-99.99,,,-99.99,,2013-02-06 16:41:00,
2013-02-06 16:51:00,44.0,32.0,-100.00,North,-999,-999.0,-999.0,62,-99.99,,,-99.99,,2013-02-06 16:51:00,
2013-02-06 17:00:00,43.0,29.0,-100.00,North,-999,-999.0,-999.0,58,-99.99,,,-99.99,,2013-02-06 17:00:00,
2013-02-06 17:41:00,43.0,29.0,-100.00,North,-999,-999.0,-999.0,58,-99.99,,,-99.99,,2013-02-06 17:41:00,
2013-02-06 17:52:00,43.0,29.0,-100.00,North,-999,-999.0,-999.0,58,-99.99,,,-99.99,,2013-02-06 17:52:00,
2013-02-06 18:00:00,42.0,29.0,-100.00,North,-999,-999.0,-999.0,59,-99.99,,,-99.99,,2013-02-06 18:00:00,
2013-02-06 18:41:00,42.0,29.0,-100.00,North,-999,-999.0,-999.0,59,-99.99,,,-99.99,,2013-02-06 18:41:00,
2013-02-06 18:52:00,42.0,29.0,-100.00,North,-999,-999.0,-999.0,59,-99.99,,,-99.99,,2013-02-06 18:52:00,
2013-02-06 19:00:00,40.0,31.0,-100.00,North,-999,-999.0,-999.0,69,-99.99,,,-99.99,,2013-02-06 19:00:00,
2013-02-06 19:41:00,40.0,31.0,-100.00,North,-999,-999.0,-999.0,69,-99.99,,,-99.99,,2013-02-06 19:41:00,
2013-02-06 19:52:00,40.0,31.0,-100.00,North,-999,-999.0,-999.0,69,-99.99,,,-99.99,,2013-02-06 19:52:00,
2013-02-06 20:00:00,39.0,31.0,-100.00,North,-999,-999.0,-999.0,72,-99.99,,,-99.99,,2013-02-06 20:00:00,
2013-02-06 20:41:00,39.0,31.0,-100.00,North,-999,-999.0,-999.0,72,-99.99,,,-99.99,,2013-02-06 20:41:00,
2013-02-06 20:52:00,39.0,31.0,-100.00,North,-999,-999.0,-999.0,72,-99.99,,,-99.99,,2013-02-06 20:52:00,
2013-02-06 21:00:00,38.0,31.0,-100.00,North,-999,-999.0,-999.0,75,-99.99,,,-99.99,,2013-02-06 21:00:00,
2013-02-06 21:41:00,38.0,31.0,-100.00,North,-999,-999.0,-999.0,75,-99.99,,,-99.99,,2013-02-06 21:41:00,
2013-02-06 21:51:00,38.0,31.0,-100.00,North,-999,-999.0,-999.0,75,-99.99,,,-99.99,,2013-02-06 21:51:00,
2013-02-06 22:00:00,38.0,32.0,-100.00,North,-999,-999.0,-999.0,78,-99.99,,,-99.99,,2013-02-06 22:00:00,
2013-02-06 22:41:00,38.0,32.0,-100.00,North,-999,-999.0,-999.0,78,-99.99,,,-99.99,,2013-02-06 22:41:00,
2013-02-06 22:51:00,38.0,32.0,-100.00,North,-999,-999.0,-999.0,78,-99.99,,,-99.99,,2013-02-06 22:51:00,
2013-02-06 23:00:00,41.0,35.0,-100.00,North,-999,-999.0,-999.0,78,-99.99,,,-99.99,,2013-02-06 23:00:00,
2013-02-06 23:41:00,41.0,35.0,-100.00,North,-999,-999.0,-999.0,78,-99.99,,,-99.99,,2013-02-06 23:41:00,
2013-02-06 23:51:00,41.0,35.0,-100.00,North,-999,-999.0,-999.0,78,-99.99,,,-99.99,,2013-02-06 23:51:00,